📊 Raw Sensor Data

Showing records 47951 to 47975 of 85,093 total

ID Distance (ft) Battery V Battery A Int Temp (°F) Int Humid (%) Ext Temp (°F) Solar V RSSI SNR Time Stamp
37155 -- 3.84 0 81 40 75 5.10 -77 9 04/07/2025 02:30 PM
37154 -- 3.84 0 80 40 71 5.10 -79 9 04/07/2025 02:15 PM
37153 -- 3.84 0 81 39 71 5.10 -78 9 04/07/2025 02:00 PM
37152 -- 3.84 0 79 40 71 5.10 -80 8 04/07/2025 01:45 PM
37151 -- 3.84 0 79 40 73 5.10 -77 8 04/07/2025 01:30 PM
37150 -- 3.84 0 77 40 69 5.10 -79 8 04/07/2025 01:15 PM
37149 -- 3.84 0 78 39 71 5.10 -77 8 04/07/2025 01:00 PM
37148 -- 3.84 0 76 40 71 5.10 -78 8 04/07/2025 12:45 PM
37147 -- 3.99 0 75 40 69 5.10 -78 8 04/07/2025 12:30 PM
37146 -- 3.85 0 75 39 68 5.10 -78 8 04/07/2025 12:15 PM
37145 -- 3.94 0 73 40 72 5.10 -78 8 04/07/2025 12:00 PM
37144 -- 3.84 0 72 40 69 5.10 -78 9 04/07/2025 11:45 AM
37143 -- 3.84 0 72 40 70 5.10 -79 8 04/07/2025 11:30 AM
37142 -- 3.84 0 70 40 70 5.10 -78 8 04/07/2025 11:15 AM
37141 -- 4.02 0 70 40 68 5.10 -79 8 04/07/2025 11:00 AM
37140 -- 3.84 0 68 40 67 5.10 -78 8 04/07/2025 10:45 AM
37139 -- 3.84 0 67 40 66 5.10 -78 8 04/07/2025 10:30 AM
37138 -- 3.95 0 66 40 64 5.10 -79 9 04/07/2025 10:15 AM
37137 -- 3.84 0 65 40 62 5.10 -79 8 04/07/2025 10:00 AM
37136 -- 3.84 0 64 40 63 5.10 -78 8 04/07/2025 09:46 AM
37135 -- 3.99 0 63 39 61 5.10 -77 9 04/07/2025 09:30 AM
37134 -- 3.87 0 63 39 63 5.10 -76 8 04/07/2025 09:15 AM
37133 -- 3.84 0 62 39 63 5.10 -77 8 04/07/2025 09:01 AM
37132 -- 3.84 0 60 39 60 5.10 -76 8 04/07/2025 08:45 AM
37131 -- 3.89 5 58 40 57 4.50 -77 9 04/07/2025 08:16 AM